EW9309 Weather Reports


time (UTC)temp
F
wind
direction
speed
knots
gust
knots
rain 1hr
in
rain 24hr
in
rain mn
in
humidity
%
barometer
mb
20260506051010 67 0 0.0 0.9 0.00 0.00 0.00 32 1012.5
20260506050510 67 0 0.0 1.7 0.00 0.00 0.00 32 1012.5
20260506045009 68 360 0.0 1.7 0.00 0.00 0.00 31 1012.3
20260506044538 68 0 0.0 1.7 0.00 0.00 0.00 31 1012.3
20260506044010 68 360 0.0 1.7 0.00 0.00 0.00 31 1012.3
20260506043513 68 0 0.0 2.6 0.00 0.00 0.00 31 1012.3
20260506043028 68 360 0.0 3.5 0.00 0.00 0.00 30 1012.4
20260506042512 69 360 0.0 3.5 0.00 0.00 0.00 30 1012.3
20260506042010 69 360 0.9 4.3 0.00 0.00 0.00 30 1012.2
20260506041541 69 0 0.9 4.3 0.00 0.00 0.00 30 1012.1
20260506041015 69 0 0.9 2.6 0.00 0.00 0.00 30 1012.2
20260506040516 69 0 0.0 2.6 0.00 0.00 0.00 29 1012.2
20260506040033 69 0 0.0 3.5 0.00 0.00 0.00 29 1012.1
20260506035509 69 360 0.0 3.5 0.00 0.00 0.00 29 1011.9
20260506035010 70 360 0.9 4.3 0.00 0.00 0.00 29 1011.8
20260506034532 70 360 0.0 5.2 0.00 0.00 0.00 29 1011.9
20260506034011 70 360 0.9 5.2 0.00 0.00 0.00 28 1011.9
20260506033511 70 360 0.9 2.6 0.00 0.00 0.00 29 1011.8
20260506033027 70 360 0.0 3.5 0.00 0.00 0.00 29 1011.7
20260506032508 70 0 0.9 3.5 0.00 0.00 0.00 29 1011.7
20260506032010 70 360 1.7 3.5 0.00 0.00 0.00 29 1011.6
20260506031530 70 360 0.9 4.3 0.00 0.00 0.00 29 1011.6
20260506031011 71 360 0.9 6.1 0.00 0.00 0.00 28 1011.6
20260506030509 71 246 1.7 6.1 0.00 0.00 0.00 28 1011.4
20260506030030 71 248 1.7 6.1 0.00 0.00 0.00 28 1011.4
20260506025510 71 250 0.9 6.1 0.00 0.00 0.00 27 1011.3
20260506025008 71 0 2.6 6.1 0.00 0.00 0.00 27 1011.2
20260506024531 71 257 1.7 6.1 0.00 0.00 0.00 27 1011.3
20260506024016 72 245 0.9 6.1 0.00 0.00 0.00 27 1011.1
20260506023512 72 223 0.9 6.1 0.00 0.00 0.00 27 1011.0
20260506023030 72 0 1.7 7.0 0.00 0.00 0.00 26 1010.9
20260506022513 72 246 1.7 7.8 0.00 0.00 0.00 26 1010.9
20260506022009 73 271 2.6 8.7 0.00 0.00 0.00 26 1010.7
20260506021529 73 246 3.5 8.7 0.00 0.00 0.00 25 1010.7
20260506021016 73 248 1.7 7.8 0.00 0.00 0.00 25 1010.7
20260506020515 73 250 2.6 7.8 0.00 0.00 0.00 25 1010.6
20260506020030 74 282 2.6 7.8 0.00 0.00 0.00 24 1010.5
20260506015511 74 249 1.7 7.8 0.00 0.00 0.00 25 1010.5
20260506015008 74 221 2.6 8.7 0.00 0.00 0.00 25 1010.3
20260506014529 74 242 2.6 10.4 0.00 0.00 0.00 24 1010.3
20260506014009 74 271 1.7 10.4 0.00 0.00 0.00 24 1010.3
20260506013510 75 234 3.5 8.7 0.00 0.00 0.00 24 1010.2
20260506013033 75 244 1.7 9.6 0.00 0.00 0.00 24 1010.3
20260506012510 75 259 4.3 10.4 0.00 0.00 0.00 24 1010.2
20260506012013 76 263 3.5 10.4 0.00 0.00 0.00 24 1010.2
20260506011539 76 205 2.6 10.4 0.00 0.00 0.00 24 1010.1
20260506011015 76 265 2.6 9.6 0.00 0.00 0.00 24 1010.2
20260506010511 76 256 2.6 10.4 0.00 0.00 0.00 25 1010.2
20260506010027 76 266 2.6 13.9 0.00 0.00 0.00 24 1010.0
20260506005508 77 201 5.2 13.9 0.00 0.00 0.00 24 1010.0
20260506005010 77 261 2.6 10.4 0.00 0.00 0.00 24 1010.0
20260506004540 77 211 2.6 13.0 0.00 0.00 0.00 24 1009.9
20260506004012 77 259 3.5 13.0 0.00 0.00 0.00 24 1009.9
20260506003513 78 286 4.3 12.2 0.00 0.00 0.00 24 1009.8
20260506003030 78 279 4.3 12.2 0.00 0.00 0.00 24 1009.8
20260506002511 78 220 3.5 8.7 0.00 0.00 0.00 24 1009.7
20260506002011 78 236 2.6 11.3 0.00 0.00 0.00 24 1009.8
20260506001531 78 245 5.2 11.3 0.00 0.00 0.00 23 1009.7
20260506001012 78 235 4.3 11.3 0.00 0.00 0.00 24 1009.7
20260506000516 78 259 4.3 13.0 0.00 0.00 0.00 24 1009.7
20260506000029 78 242 4.3 13.0 0.00 0.00 0.00 24 1009.6
20260505235510 78 244 3.5 12.2 0.00 0.00 0.00 24 1009.6
20260505235012 78 241 4.3 15.6 0.00 0.00 0.00 24 1009.6
20260505234530 78 260 5.2 15.6 0.00 0.00 0.00 23 1009.6
20260505234014 78 227 4.3 15.6 0.00 0.00 0.00 24 1009.6
20260505233510 78 243 1.7 15.6 0.00 0.00 0.00 25 1009.5
20260505233033 78 196 4.3 15.6 0.00 0.00 0.00 25 1009.5
20260505232517 77 213 1.7 9.6 0.00 0.00 0.00 26 1009.5
20260505232010 77 262 2.6 10.4 0.00 0.00 0.00 26 1009.6
20260505231537 78 230 5.2 10.4 0.00 0.00 0.00 24 1009.7
20260505231008 79 237 3.5 8.7 0.00 0.00 0.00 24 1009.6
20260505230509 78 240 2.6 12.2 0.00 0.00 0.00 25 1009.7
20260505230028 79 263 4.3 12.2 0.00 0.00 0.00 24 1009.7
20260505225513 79 175 5.2 10.4 0.00 0.00 0.00 25 1009.8
20260505225010 78 225 2.6 15.6 0.00 0.00 0.00 25 1009.7
20260505224528 78 242 3.5 15.6 0.00 0.00 0.00 25 1009.8
20260505224012 78 218 5.2 11.3 0.00 0.00 0.00 24 1009.9
20260505223511 79 192 4.3 11.3 0.00 0.00 0.00 24 1009.9
20260505223028 79 200 2.6 10.4 0.00 0.00 0.00 26 1009.9
20260505222513 78 270 5.2 10.4 0.00 0.00 0.00 26 1010.0
20260505222012 78 219 3.5 10.4 0.00 0.00 0.00 25 1010.1
20260505221528 78 228 3.5 9.6 0.00 0.00 0.00 25 1010.3
20260505221009 79 219 3.5 9.6 0.00 0.00 0.00 26 1010.3
20260505220507 78 256 1.7 9.6 0.00 0.00 0.00 27 1010.4
20260505220046 78 283 4.3 14.8 0.00 0.00 0.00 26 1010.5
20260505215514 79 235 3.5 14.8 0.00 0.00 0.00 26 1010.6
20260505215009 79 232 5.2 14.8 0.00 0.00 0.00 27 1010.4
20260505214532 78 225 4.3 9.6 0.00 0.00 0.00 26 1010.4
20260505214010 78 274 4.3 13.0 0.00 0.00 0.00 27 1010.3
20260505213510 77 246 3.5 13.0 0.00 0.00 0.00 28 1010.5
20260505213031 78 286 2.6 13.0 0.00 0.00 0.00 27 1010.5
20260505212512 79 250 5.2 13.9 0.00 0.00 0.00 26 1010.7
20260505212014 79 235 4.3 13.9 0.00 0.00 0.00 26 1010.7
20260505211537 78 286 6.1 13.9 0.00 0.00 0.00 27 1010.8
20260505211011 79 273 2.6 11.3 0.00 0.00 0.00 26 1010.8
20260505210510 79 230 3.5 10.4 0.00 0.00 0.00 28 1010.9
20260505210033 78 265 4.3 10.4 0.00 0.00 0.00 27 1010.9
20260505205516 78 233 4.3 12.2 0.00 0.00 0.00 27 1010.9
20260505205012 78 263 6.1 12.2 0.00 0.00 0.00 28 1011.1
20260505204527 78 253 3.5 12.2 0.00 0.00 0.00 28 1010.9
20260505204010 78 279 3.5 11.3 0.00 0.00 0.00 28 1010.9
20260505203514 79 243 3.5 11.3 0.00 0.00 0.00 26 1011.1
20260505203028 80 262 2.6 11.3 0.00 0.00 0.00 27 1011.0
20260505202510 80 234 3.5 14.8 0.00 0.00 0.00 27 1011.0
20260505202012 79 163 4.3 14.8 0.00 0.00 0.00 26 1011.1
20260505201530 80 258 4.3 12.2 0.00 0.00 0.00 27 1011.1
20260505201010 80 221 3.5 10.4 0.00 0.00 0.00 28 1011.3
20260505200510 79 275 3.5 10.4 0.00 0.00 0.00 28 1011.2
20260505200028 79 273 0.9 12.2 0.00 0.00 0.00 28 1011.3
20260505195512 79 268 2.6 12.2 0.00 0.00 0.00 29 1011.3
20260505195011 79 272 3.5 12.2 0.00 0.00 0.00 30 1011.3
20260505194529 78 269 2.6 12.2 0.00 0.00 0.00 28 1011.4
20260505194014 77 266 5.2 12.2 0.00 0.00 0.00 30 1011.5
20260505193510 79 259 6.1 12.2 0.00 0.00 0.00 29 1011.4
20260505193035 79 249 2.6 10.4 0.00 0.00 0.00 29 1011.5
20260505192511 79 0 1.7 10.4 0.00 0.00 0.00 31 1011.5
20260505192010 78 234 2.6 13.9 0.00 0.00 0.00 30 1011.6
20260505191529 78 152 3.5 14.8 0.00 0.00 0.00 31 1011.7
20260505191010 77 281 3.5 14.8 0.00 0.00 0.00 31 1011.7
20260505190514 77 237 4.3 13.9 0.00 0.00 0.00 31 1011.6
20260505190028 77 228 3.5 11.3 0.00 0.00 0.00 32 1011.6
20260505185509 77 286 3.5 12.2 0.00 0.00 0.00 32 1011.7
20260505185012 77 240 2.6 12.2 0.00 0.00 0.00 33 1011.6
20260505184531 76 152 3.5 12.2 0.00 0.00 0.00 33 1011.7
20260505184011 76 227 2.6 11.3 0.00 0.00 0.00 36 1011.8
20260505183511 75 223 4.3 12.2 0.00 0.00 0.00 34 1011.8
20260505183036 75 257 4.3 12.2 0.00 0.00 0.00 35 1011.8
20260505182511 75 274 3.5 13.9 0.00 0.00 0.00 36 1011.8
20260505182015 75 219 4.3 13.9 0.00 0.00 0.00 37 1011.9
20260505181529 74 240 3.5 10.4 0.00 0.00 0.00 39 1011.9
20260505181042 73 230 2.6 13.0 0.00 0.00 0.00 39 1011.8
20260505180510 74 273 5.2 13.0 0.00 0.00 0.00 39 1011.9
20260505180029 75 270 4.3 9.6 0.00 0.00 0.00 40 1011.9
20260505175513 74 263 1.7 7.0 0.00 0.00 0.00 42 1011.9
20260505175011 74 280 1.7 7.0 0.00 0.00 0.00 41 1011.9
20260505174528 73 173 0.9 3.5 0.00 0.00 0.00 41 1011.9
20260505174010 73 290 1.7 5.2 0.00 0.00 0.00 40 1011.9
20260505173511 73 267 0.9 7.8 0.00 0.00 0.00 42 1011.8
20260505173030 73 0 1.7 7.8 0.00 0.00 0.00 41 1011.9
20260505172516 73 295 3.5 7.8 0.00 0.00 0.00 42 1011.8
20260505172012 73 298 1.7 7.0 0.00 0.00 0.00 42 1011.9
20260505171529 72 252 1.7 8.7 0.00 0.00 0.00 44 1011.9
20260505171014 72 261 1.7 8.7 0.00 0.00 0.00 43 1011.9
20260505170511 72 271 1.7 9.6 0.00 0.00 0.00 45 1011.9
20260505170031 72 271 2.6 9.6 0.00 0.00 0.00 46 1012.0
20260505165512 71 271 5.2 9.6 0.00 0.00 0.00 45 1012.0
20260505165011 71 280 5.2 8.7 0.00 0.00 0.00 46 1011.8
20260505164550 71 0 2.6 7.0 0.00 0.00 0.00 47 1011.9
20260505164011 71 245 0.9 9.6 0.00 0.00 0.00 47 1012.0
20260505163508 71 290 4.3 9.6 0.00 0.00 0.00 47 1012.0
20260505163029 70 0 0.9 6.1 0.00 0.00 0.00 51 1012.0
20260505162510 69 0 1.7 7.8 0.00 0.00 0.00 50 1012.0
20260505162008 68 286 2.6 7.8 0.00 0.00 0.00 51 1012.0
20260505161528 68 360 0.9 7.8 0.00 0.00 0.00 52 1012.1
20260505161011 68 360 1.7 8.7 0.00 0.00 0.00 52 1012.2
20260505160512 68 360 1.7 8.7 0.00 0.00 0.00 53 1012.1
20260505153028 67 360 3.5 8.7 0.00 0.00 0.00 54 1012.2
20260505152513 68 360 3.5 8.7 0.00 0.00 0.00 54 1012.3
20260505152011 68 360 0.9 7.8 0.00 0.00 0.00 55 1012.2
20260505151529 68 360 2.6 8.7 0.00 0.00 0.00 55 1012.0
20260505151010 68 360 3.5 8.7 0.00 0.00 0.00 54 1011.9
20260505150515 68 277 0.9 8.7 0.00 0.00 0.00 55 1011.8
20260505140510 66 0 0.0 4.3 0.00 0.00 0.00 57 1011.9
20260505125008 65 0 0.0 0.0 0.00 0.00 0.00 56 1011.0
20260505124536 65 0 0.0 0.0 0.00 0.00 0.00 55 1011.0
20260505124011 65 0 0.0 0.0 0.00 0.00 0.00 56 1010.9
20260505123508 65 0 0.0 1.7 0.00 0.00 0.00 55 1010.9
20260505123028 65 0 0.0 2.6 0.00 0.00 0.00 56 1010.8
20260505122512 65 0 0.0 2.6 0.00 0.00 0.00 56 1010.8
20260505122013 65 0 0.9 3.5 0.00 0.00 0.00 56 1010.8
20260505121534 65 0 0.9 3.5 0.00 0.00 0.00 55 1010.9
20260505121010 65 360 0.0 2.6 0.00 0.00 0.00 55 1011.0
20260505120516 65 0 0.0 1.7 0.00 0.00 0.00 55 1010.7
20260505120034 65 0 0.0 2.6 0.00 0.00 0.00 54 1010.8
20260505115509 65 0 0.0 2.6 0.00 0.00 0.00 54 1010.9
20260505115017 65 0 0.0 2.6 0.00 0.00 0.00 54 1010.8
20260505114531 65 360 0.0 2.6 0.00 0.00 0.00 54 1010.8
20260505114011 65 360 0.0 3.5 0.00 0.00 0.00 54 1010.8
20260505113509 66 360 0.0 3.5 0.00 0.00 0.00 53 1010.8
20260505113033 66 360 0.0 3.5 0.00 0.00 0.00 53 1010.7
20260505112508 66 360 0.0 3.5 0.00 0.00 0.00 52 1010.8
20260505112010 66 360 0.0 3.5 0.00 0.00 0.00 52 1010.8
20260505111526 66 360 0.9 3.5 0.00 0.00 0.00 52 1010.8
20260505111013 67 0 0.0 3.5 0.00 0.00 0.00 52 1010.6
20260505110511 67 360 0.0 7.0 0.00 0.00 0.00 51 1010.5
20260505102008 68 0 0.9 5.2 0.00 0.00 0.00 49 1011.1
20260505101528 68 0 0.9 8.7 0.00 0.00 0.00 48 1011.1
20260505101012 68 360 0.9 10.4 0.00 0.00 0.00 48 1011.0
20260505100509 68 360 2.6 10.4 0.00 0.00 0.00 47 1010.9
20260505100028 68 360 2.6 10.4 0.00 0.00 0.00 47 1011.0
20260505095510 68 360 3.5 9.6 0.00 0.00 0.00 46 1011.1
20260505095010 69 360 1.7 9.6 0.00 0.00 0.00 45 1011.2
20260505094533 69 360 2.6 9.6 0.00 0.00 0.00 45 1011.3
20260505094009 69 360 1.7 5.2 0.00 0.00 0.00 45 1011.4
20260505093507 69 360 0.9 5.2 0.00 0.00 0.00 45 1011.4
20260505093030 69 360 1.7 5.2 0.00 0.00 0.00 45 1011.4
20260505092512 69 360 0.0 2.6 0.00 0.00 0.00 45 1011.4
20260505092013 69 0 0.0 0.0 0.00 0.00 0.00 45 1011.4
20260505091528 69 0 0.0 0.9 0.00 0.00 0.00 44 1011.5
20260505091013 69 0 0.0 1.7 0.00 0.00 0.00 43 1011.6
20260505090508 69 0 0.0 1.7 0.00 0.00 0.00 44 1011.5
20260505090030 69 0 0.0 4.3 0.00 0.00 0.00 42 1011.5
20260505085530 69 360 0.9 4.3 0.00 0.00 0.00 42 1011.5
20260505085010 69 0 0.0 1.7 0.00 0.00 0.00 41 1011.4
20260505084542 70 0 0.0 4.3 0.00 0.00 0.00 41 1011.5
20260505084011 70 0 0.0 4.3 0.00 0.00 0.00 41 1011.7
20260505083513 70 0 0.0 4.3 0.00 0.00 0.00 40 1011.7
20260505083028 70 0 0.0 3.5 0.00 0.00 0.00 40 1011.8
20260505082508 70 360 0.9 4.3 0.00 0.00 0.00 40 1011.8
20260505082007 70 360 0.9 4.3 0.00 0.00 0.00 40 1012.0
20260505081526 70 360 0.0 3.5 0.00 0.00 0.00 40 1011.9
20260505081010 70 0 0.0 2.6 0.00 0.00 0.00 40 1011.9
20260505080511 70 0 0.0 2.6 0.00 0.00 0.00 40 1011.9
20260505080026 70 360 0.0 2.6 0.00 0.00 0.00 39 1011.7
20260505075509 70 0 0.0 1.7 0.00 0.00 0.00 39 1011.8
20260505075010 70 0 0.0 1.7 0.00 0.00 0.00 39 1011.9
20260505074531 71 0 0.0 1.7 0.00 0.00 0.00 38 1012.1
20260505074009 71 0 0.0 1.7 0.00 0.00 0.00 38 1012.0
20260505073509 71 0 0.0 1.7 0.00 0.00 0.00 38 1011.9
20260505073030 71 360 0.0 2.6 0.00 0.00 0.00 38 1011.8
20260505072510 71 360 0.0 3.5 0.00 0.00 0.00 37 1011.6
20260505072012 71 0 0.0 3.5 0.00 0.00 0.00 36 1011.7
20260505071529 71 360 0.0 3.5 0.00 0.00 0.00 36 1011.8
20260505071011 71 360 0.9 3.5 0.00 0.00 0.00 37 1011.9
20260505070514 71 360 0.0 1.7 0.00 0.00 0.00 37 1011.9
20260505070036 71 0 0.0 2.6 0.00 0.00 0.00 37 1011.8
20260505065516 71 360 0.0 2.6 0.00 0.00 0.00 38 1011.7
20260505065006 71 360 0.9 3.5 0.00 0.00 0.00 38 1011.9
20260505064529 71 0 0.0 5.2 0.00 0.00 0.00 39 1011.8
20260505064014 71 360 0.9 5.2 0.00 0.00 0.00 40 1011.7
20260505063509 71 360 0.0 4.3 0.00 0.00 0.00 42 1011.6
20260505063032 71 0 0.0 0.0 0.00 0.00 0.00 43 1011.7
20260505062512 71 0 0.0 0.0 0.00 0.00 0.00 42 1011.6
20260505062011 71 0 0.0 0.0 0.00 0.00 0.00 42 1011.4
20260505061527 71 0 0.0 0.0 0.00 0.00 0.00 42 1011.4
20260505061011 71 0 0.0 0.0 0.00 0.00 0.00 42 1011.4
20260505060511 71 0 0.0 0.0 0.00 0.00 0.00 42 1011.4
20260505060034 71 0 0.0 0.0 0.00 0.00 0.00 42 1011.4